User: anonymous   Login
Location: Columbia
(38.9520°N, 92.3340°W)
Time: 17:24:46
(UTC-05:00)
Language:

Cosmos 158 Rocket - Orbit

View from above orbital plane
View from above orbital plane
View from above satellite
View from above satellite

Ground track
Ground track

The orbit data is extracted from the following two-line orbital elements,

1 02802U 67045B   16270.53616791  .00000063  00000-0  25919-4 0  9997
2 02802  74.0106 297.4759 0065595  54.5711 306.1546 14.43597860590936
Epoch (UTC): 26 September 2016 12:52:04
Eccentricity: 0.0065595
inclination: 74.0106°
perigee height: 700 km
apogee height: 793 km
right ascension of ascending node: 297.4759°
argument of perigee: 54.5711°
revolutions per day: 14.43597860
mean anomaly at epoch: 306.1546°
orbit number at epoch: 59093

The dashed part of the orbit path shows where the satellite is in the earth's shadow,  

DLR